Regional Weather Roundup
Issued by NWS

Home | Current Version | Previous Version | Text Only | Print | Product List | Glossary Off
Versions: 1 2 3 4 5 6 7 8 9 10 11 12 13 14 15 16 17 18 19 20 21 22 23 24 25 26 27

000
ASUS45 KBOU 250807
RWRCO

WEATHER ROUNDUP FOR COLORADO
NATIONAL WEATHER SERVICE DENVER/BOULDER CO
100 AM MST SAT FEB 25 2017

NOTE: "FAIR" INDICATES FEW OR NO CLOUDS BELOW 12000 FEET WITH NO
SIGNIFICANT WEATHER AND/OR OBSTRUCTIONS TO VISIBILITY.

COZ001>005-013-030-031-250900-
...NORTHWEST COLORADO...

CITY           SKY/WX    TMP DP  RH WIND       PRES   REMARKS
CRAIG          FAIR       6   1  80 CALM      30.07S
HAYDEN         FAIR      10   5  79 S3        30.04S
MEEKER         MOCLDY    12   7  80 CALM      30.05S
MOUNT WERNER   NOT AVBL
STEAMBOAT SPGS CLOUDY     7   4  88 CALM      30.02S VSB 3/4
WALDEN         NOT AVBL
$$

COZ006>008-011-250900-
...WEST CENTRAL VALLEYS...

CITY           SKY/WX    TMP DP  RH WIND       PRES   REMARKS
GRAND JUNCTION FAIR      18  15  88 E3        30.10R
MONTROSE       CLOUDY    17  11  77 SE7       30.12R WCI   8
EAGLE          FAIR      14  11  87 E5        30.05S WCI   6
RIFLE          FAIR      14  10  84 CALM      30.09S
DELTA          CLOUDY    21  16  79 CALM      30.12R
NUCLA          FAIR      19  10  68 SE8       30.12R WCI   9
$$

COZ017>023-064>068-250900-
...SOUTHWEST COLORADO...

CITY           SKY/WX    TMP DP  RH WIND       PRES   REMARKS
DURANGO        FAIR      18   8  65 CALM      30.04S
CORTEZ         FAIR      16  13  88 CALM      30.08R
PAGOSA SPRINGS FAIR      10   1  68 CALM      30.02S
TELLURIDE      CLOUDY     9   4  80 SE5       30.00R WCI   0
WOLF CREEK PAS FAIR      -4  -6  92 S8        29.91S WCI -19
$$

COZ009-010-012-014-032>034-037-058>063-250900-
...CENTRAL COLORADO...

CITY           SKY/WX    TMP DP  RH WIND       PRES   REMARKS
ASPEN          LGT SNOW  11   9  92 CALM      29.97S FOG
BUENA VISTA    FAIR      15  -3  45 W9        29.95S WCI   3
COPPER MTN     LGT SNOW   1  -6  71 MISG      29.77F
BERTHOUD PASS  HAZE      -9 -18  64 NW20      29.71F VSB 1/2 WCI -34
COTTONWOOD PAS FAIR      12  -8  40 W14G25    29.87S WCI  -3
GUNNISON       FAIR       8   4  83 N3        30.02R
KREMMLING      FAIR      16   9  73 CALM      30.00S
LEADVILLE      MOCLDY     3  -5  69 NW10G18   29.86S WCI -12
MONARCH PASS   CLOUDY     0  -6  78 W23G32    29.89F WCI -24
SALIDA         FAIR      19   1  46 W9        30.05R WCI   7
SUNLIGHT       NOT AVBL
WILKERSON PASS FAIR       0  -4  85 SW8G16    29.82F WCI -15
$$

COZ069>075-250900-
...SAN LUIS VALLEY/SANGRE DE CRISTO MOUNTAINS...

CITY           SKY/WX    TMP DP  RH WIND       PRES   REMARKS
ALAMOSA        FAIR      11   8  88 N3        29.99S
LA VETA PASS   FLURRIES   9   5  85 SW5       29.88S WCI   0
SAGUACHE       FAIR      14   5  67 W9        29.99R WCI   2
$$

COZ035-036-038>040-250900-
...NORTHERN COLORADO FRONT RANGE...

CITY           SKY/WX    TMP DP  RH WIND       PRES   REMARKS
DENVER INTL AP MOCLDY    19  13  77 S7        29.98F WCI  10
DMNS CITY PARK   N/A     20  13  75 SW3       29.99F
AURORA         MOCLDY    17  14  86 SW9       29.98F WCI   6
FRONT RANGE AP MOCLDY    21  18  86 SW6       29.99F WCI  14
ERIE MUNI ARPT FAIR      15  13  94 S3        30.00F
BOULDER MUN AP FAIR      18  12  79 CALM      29.99F
CENTENNIAL     MOCLDY    16  11  80 S8        29.97F WCI   5
BROOMFIELD     FAIR      19  12  73 CALM      29.98F
FORT COLLINS   FAIR      15  11  83 NE6       30.01F WCI   6
LONGMONT       FAIR      13   9  81 CALM      30.02F
$$

COZ041-046-047-076>085-087-088-250900-
...PIKES PEAK/PALMER DIVIDE AND SOUTHERN FOOTHILLS...

CITY           SKY/WX    TMP DP  RH WIND       PRES   REMARKS
COLO. SPRINGS  FLURRIES  15  10  80 E5        30.02S WCI   8
A. F. ACADEMY  CLOUDY    16  11  80 S8        29.98F WCI   5
SCHRIEVER AFB  FLURRIES  15  11  84 CALM      30.02
ELLICOTT       LGT RAIN N/A N/A N/A CALM      30.00
FALCON         LGT SNOW  15  12  90 S5        29.99F WCI   7
FORT CARSON    FAIR      17  10  73 S13       30.01F WCI   4
LIMON          CLOUDY    17  15  92 S8        30.02F WCI   7
MONUMENT HILL  FAIR      12   9  85 S10       29.96F WCI  -1
TRINIDAD       FAIR      14   8  77 W7        30.03S WCI   4
$$

COZ042>045-048>051-090-091-250900-
...NORTHEAST COLORADO...

CITY           SKY/WX    TMP DP  RH WIND       PRES   REMARKS
GREELEY ARPT   FAIR      13  10  88 N6        30.03F WCI   4
AKRON          FAIR      15   9  76 SW9       30.02F WCI   3
BURLINGTON     FAIR      12   8  84 SW7       30.08F WCI   1
WRAY           NOT AVBL
STERLING       FAIR       5   1  85 SW3       30.04F
HOLYOKE        FAIR       9   5  85 SW3       30.08F
FORT MORGAN    FAIR      15  11  87 SW5       30.03F WCI   7
$$

COZ086-089-092>099-250900-
...SOUTHEAST COLORADO...

CITY           SKY/WX    TMP DP  RH WIND       PRES   REMARKS
PUEBLO         MOCLDY    21  11  65 NE6       30.08S WCI  13
LA JUNTA       MOCLDY    23  13  65 S6        30.10F WCI  16
LAMAR          CLOUDY    24  17  74 S3        30.11S
SPRINGFIELD      N/A      9   6  88 SW5       30.10S WCI   1
$$




USA.gov is the U.S. government's official web portal to all federal, state and local government web resources and services.